Weather History for Springfield, MO

Change the Weather History Date:

Sunday, December 30, 2012

  Actual Average Record
Temperature  
Mean Temperature 31 °F 33 °F  
Max Temperature 44 °F 43 °F 72 °F (1965)
Min Temperature 17 °F 23 °F -10 °F (1983)
Degree Days  
Heating Degree Days 34 32  
Month to date heating degree days 699 900  
Since 1 July heating degree days 1616 1779  
Cooling Degree Days 0 0  
Month to date cooling degree days 2 0  
Year to date cooling degree days 1766 1389  
Moisture  
Dew Point 17 °F    
Average Humidity 59    
Maximum Humidity 84    
Minimum Humidity 33    
Precipitation  
Precipitation 0.00 in 0.09 in 1.00 in (2006)
Month to date precipitation 0.94 2.96  
Year to date precipitation 30.78 45.49  
Snow  
Snow 0.00 in - - ()
Month to date snowfall 0.1  
Since 1 July snowfall 0.1  
Snow Depth 0.00 in    
Sea Level Pressure  
Sea Level Pressure 30.34 in    
Wind  
Wind Speed 10 mph (South)    
Max Wind Speed 20 mph    
Max Gust Speed 25 mph    
Visibility 10 miles    
Events      
T = Trace of Precipitation, MM = Missing Value Source: NWS Daily Summary

Daily Weather History Graph

Daily Weather History Graph

Search for Another Location

Airport:

Trip Planner

Search our weather history database for the weather conditions in past years. The results will help you decide how hot, cold, wet, or windy it might be!

Date:

Astronomy

Dec. 30, 2012 Rise Set
Actual Time 7:27 AM CST 5:05 PM CST
Civil Twilight 6:58 AM CST 5:34 PM CST
Nautical Twilight 6:25 AM CST 6:07 PM CST
Astronomical Twilight 5:53 AM CST 6:39 PM CST
Moon 7:33 PM CST (12/30) 8:39 AM CST (12/30)
Length of Visible Light 10h 36m
Length of Day
9h 38m
Waning Gibbous, 95% of the Moon is Illuminated
Dec 30
Waning Gibbous
Jan 4
Last Quarter
Jan 11
New
Jan 18
First Quarter
Jan 26
Full

Hourly Weather History & Observations

Time (CST) Temp. Windchill Dew Point Humidity Pressure Visibility Wind Dir Wind Speed Gust Speed Precip Events Conditions
12:52 AM 21.0 °F 12.4 °F 14.0 °F 74% 30.40 in 10.0 mi South 6.9 mph - N/A   Clear
1:52 AM 19.0 °F 11.1 °F 12.9 °F 77% 30.41 in 10.0 mi SSE 5.8 mph - N/A   Clear
2:52 AM 19.9 °F 13.4 °F 14.0 °F 78% 30.40 in 10.0 mi South 4.6 mph - N/A   Clear
3:52 AM 18.0 °F 7.7 °F 12.9 °F 81% 30.42 in 10.0 mi South 8.1 mph - N/A   Clear
4:52 AM 19.0 °F 8.2 °F 14.0 °F 81% 30.41 in 10.0 mi South 9.2 mph - N/A   Clear
5:52 AM 19.9 °F 9.3 °F 14.0 °F 78% 30.42 in 10.0 mi SSE 9.2 mph - N/A   Clear
6:52 AM 19.4 °F 9.5 °F 15.8 °F 86% 30.38 in 10.0 mi SSE 8.1 mph - N/A   Clear
7:52 AM 21.9 °F 13.4 °F 17.1 °F 82% 30.42 in 8.0 mi SSE 6.9 mph - N/A   Clear
8:52 AM 24.1 °F 16.0 °F 19.0 °F 81% 30.42 in 8.0 mi SSE 6.9 mph - N/A   Clear
9:52 AM 30.9 °F 22.2 °F 23.0 °F 72% 30.45 in 10.0 mi SSW 10.4 mph - N/A   Clear
10:52 AM 35.1 °F 27.4 °F 24.1 °F 64% 30.43 in 10.0 mi South 10.4 mph - N/A   Clear
11:52 AM 41.0 °F 33.5 °F 19.0 °F 41% 30.36 in 10.0 mi South 13.8 mph - N/A   Clear
12:52 PM 42.1 °F 34.5 °F 17.1 °F 37% 30.35 in 10.0 mi South 15.0 mph - N/A   Clear
1:52 PM 42.1 °F 35.7 °F 17.1 °F 37% 30.33 in 10.0 mi SSW 11.5 mph - N/A   Clear
2:52 PM 43.0 °F 35.7 °F 15.1 °F 32% 30.32 in 10.0 mi SSW 15.0 mph - N/A   Clear
3:52 PM 41.0 °F 33.5 °F 17.1 °F 38% 30.31 in 10.0 mi South 13.8 mph - N/A   Clear
4:52 PM 37.0 °F 30.4 °F 18.0 °F 46% 30.30 in 10.0 mi South 9.2 mph - N/A   Clear
5:52 PM 35.1 °F 28.6 °F 19.0 °F 52% 30.28 in 10.0 mi South 8.1 mph - N/A   Clear
6:52 PM 37.0 °F 30.4 °F 19.0 °F 48% 30.28 in 10.0 mi South 9.2 mph - N/A   Clear
7:52 PM 37.9 °F 30.5 °F 17.1 °F 43% 30.25 in 10.0 mi South 11.5 mph - N/A   Clear
8:52 PM 37.0 °F 29.3 °F 18.0 °F 46% 30.24 in 10.0 mi SSE 11.5 mph - N/A   Clear
9:52 PM 36.0 °F 28.5 °F 17.1 °F 46% 30.23 in 10.0 mi SSE 10.4 mph - N/A   Clear
10:52 PM 36.0 °F 27.5 °F 17.1 °F 46% 30.22 in 10.0 mi South 12.7 mph - N/A   Clear
11:52 PM 36.0 °F 27.1 °F 18.0 °F 48% 30.23 in 10.0 mi South 13.8 mph - N/A   Clear